owner,sensor,date,latitude,longitude,vertical_datum,wind_speed,wind_to_direction,wind_speed_of_gust,qcFlag 
TABS,ioos:station:wmo:42043:1,2010-05-01T00:00:00Z,28.9818,-94.9186,4.0,6.57590298,152.0712971,8.64,'11111222,11111222,11111222' 
TABS,ioos:station:wmo:42043:1,2010-05-01T00:30:00Z,28.9818,-94.9186,4.0,6.091830595,145.1623751,7.6,'11111222,11111222,11111222' 
TABS,ioos:station:wmo:42043:1,2010-05-01T01:00:00Z,28.9818,-94.9186,4.0,6.120294111,142.568695,7.63,'11111222,11111222,11111222' 
TABS,ioos:station:wmo:42043:1,2010-05-01T01:30:00Z,28.9818,-94.9186,4.0,6.34740892,145.0082721,8.52,'11111222,11111222,11111222' 
TABS,ioos:station:wmo:42043:1,2010-05-01T02:00:00Z,28.9818,-94.9186,4.0,5.752564645,146.9179637,7.55,'11111222,11111222,11111222' 
TABS,ioos:station:wmo:42043:1,2010-05-01T02:30:00Z,28.9818,-94.9186,4.0,5.844997861,148.4313132,7.33,'11111222,11111222,11111222' 
TABS,ioos:station:wmo:42043:1,2010-05-01T03:00:00Z,28.9818,-94.9186,4.0,5.446145426,151.3646291,6.81,'11111222,11111222,11111222' 
TABS,ioos:station:wmo:42043:1,2010-05-01T03:30:00Z,28.9818,-94.9186,4.0,5.521775077,144.583238,6.96,'11111222,11111222,11111222' 
TABS,ioos:station:wmo:42043:1,2010-05-01T04:00:00Z,28.9818,-94.9186,4.0,5.818058095,143.3864452,7.31,'11111222,11111222,11111222' 
TABS,ioos:station:wmo:42043:1,2010-05-01T04:30:00Z,28.9818,-94.9186,4.0,5.811454207,141.8486105,7.41,'11111222,11111222,11111222' 
TABS,ioos:station:wmo:42043:1,2010-05-01T05:00:00Z,28.9818,-94.9186,4.0,6.120531023,144.7782011,7.93,'11111222,11111222,11111222' 
TABS,ioos:station:wmo:42043:1,2010-05-01T05:30:00Z,28.9818,-94.9186,4.0,5.664238696,142.6043945,7.42,'11111222,11111222,11111222' 
TABS,ioos:station:wmo:42043:1,2010-05-01T06:00:00Z,28.9818,-94.9186,4.0,5.334135356,143.5385726,7.14,'11111222,11111222,11111222' 
TABS,ioos:station:wmo:42043:1,2010-05-01T06:30:00Z,28.9818,-94.9186,4.0,4.306425432,134.5299187,5.43,'11111222,11111222,11111222' 
TABS,ioos:station:wmo:42043:1,2010-05-01T07:00:00Z,28.9818,-94.9186,4.0,5.062578394,129.7914084,6.22,'11111222,11111222,11111222' 
TABS,ioos:station:wmo:42043:1,2010-05-01T07:30:00Z,28.9818,-94.9186,4.0,5.723862332,128.3318453,7.06,'11111222,11111222,11111222' 
TABS,ioos:station:wmo:42043:1,2010-05-01T08:00:00Z,28.9818,-94.9186,4.0,5.865509356,131.5446301,7.16,'11111222,11111222,11111222' 
TABS,ioos:station:wmo:42043:1,2010-05-01T08:30:00Z,28.9818,-94.9186,4.0,4.898407905,132.3526922,6.39,'11111222,11111222,11111222' 
TABS,ioos:station:wmo:42043:1,2010-05-01T09:00:00Z,28.9818,-94.9186,4.0,5.590035778,142.9254065,7.25,'11111222,11111222,11111222' 
TABS,ioos:station:wmo:42043:1,2010-05-01T09:30:00Z,28.9818,-94.9186,4.0,5.444501814,145.9307859,6.77,'11111222,11111222,11111222' 
TABS,ioos:station:wmo:42043:1,2010-05-01T10:00:00Z,28.9818,-94.9186,4.0,4.902754328,142.1253154,6.15,'11111222,11111222,11111222' 
TABS,ioos:station:wmo:42043:1,2010-05-01T10:30:00Z,28.9818,-94.9186,4.0,5.294997639,145.6199461,6.5,'11111222,11111222,11111222' 
TABS,ioos:station:wmo:42043:1,2010-05-01T11:00:00Z,28.9818,-94.9186,4.0,5.210729316,139.1246998,7.05,'11111222,11111222,11111222' 
TABS,ioos:station:wmo:42043:1,2010-05-01T11:30:00Z,28.9818,-94.9186,4.0,4.879774585,135.9966613,6.3,'11111222,11111222,11111222' 
TABS,ioos:station:wmo:42043:1,2010-05-01T12:00:00Z,28.9818,-94.9186,4.0,3.529320048,136.2631414,4.97,'11111222,11111222,11111222' 
TABS,ioos:station:wmo:42043:1,2010-05-01T12:30:00Z,28.9818,-94.9186,4.0,2.857971308,133.2989651,4.11,'11111222,11111222,11111222' 
TABS,ioos:station:wmo:42043:1,2010-05-01T13:00:00Z,28.9818,-94.9186,4.0,3.579944134,129.5599964,4.75,'11111222,11111222,11111222' 
TABS,ioos:station:wmo:42043:1,2010-05-01T13:30:00Z,28.9818,-94.9186,4.0,5.254607502,136.0026944,6.99,'11111222,11111222,11111222' 
TABS,ioos:station:wmo:42043:1,2010-05-01T14:00:00Z,28.9818,-94.9186,4.0,5.183560552,139.3030985,6.57,'11111222,11111222,11111222' 
TABS,ioos:station:wmo:42043:1,2010-05-01T14:30:00Z,28.9818,-94.9186,4.0,5.285186846,128.0844927,6.64,'11111222,11111222,11111222' 
TABS,ioos:station:wmo:42043:1,2010-05-01T15:00:00Z,28.9818,-94.9186,4.0,4.316016682,126.7109307,5.72,'11111222,11111222,11111222' 
TABS,ioos:station:wmo:42043:1,2010-05-01T15:30:00Z,28.9818,-94.9186,4.0,6.260383375,121.8117048,8.11,'11111222,11111222,11111222' 
TABS,ioos:station:wmo:42043:1,2010-05-01T16:00:00Z,28.9818,-94.9186,4.0,6.575165397,125.0923018,8.47,'11111222,11111222,11111222' 
TABS,ioos:station:wmo:42043:1,2010-05-01T16:30:00Z,28.9818,-94.9186,4.0,6.289117585,122.4016646,8.08,'11111222,11111222,11111222' 
TABS,ioos:station:wmo:42043:1,2010-05-01T17:00:00Z,28.9818,-94.9186,4.0,7.108220593,126.418841,8.77,'11111222,11111222,11111222' 
TABS,ioos:station:wmo:42043:1,2010-05-01T17:30:00Z,28.9818,-94.9186,4.0,6.919089535,130.8980212,8.86,'11111222,11111222,11111222' 
TABS,ioos:station:wmo:42043:1,2010-05-01T18:00:00Z,28.9818,-94.9186,4.0,6.640301198,130.3582887,8.82,'11111222,11111222,11111222' 
TABS,ioos:station:wmo:42043:1,2010-05-01T18:30:00Z,28.9818,-94.9186,4.0,6.27917192,135.2584024,8.03,'11111222,11111222,11111222' 
TABS,ioos:station:wmo:42043:1,2010-05-01T19:00:00Z,28.9818,-94.9186,4.0,5.686237772,143.6543685,7.12,'11111222,11111222,11111222' 
TABS,ioos:station:wmo:42043:1,2010-05-01T19:30:00Z,28.9818,-94.9186,4.0,6.494459177,150.277284,8.5,'11111222,11111222,11111222' 
TABS,ioos:station:wmo:42043:1,2010-05-01T20:00:00Z,28.9818,-94.9186,4.0,6.077713386,153.7303399,8.17,'11111222,11111222,11111222' 
TABS,ioos:station:wmo:42043:1,2010-05-01T20:30:00Z,28.9818,-94.9186,4.0,6.050694175,160.3973901,7.75,'11111222,11111222,11111222' 
TABS,ioos:station:wmo:42043:1,2010-05-01T21:00:00Z,28.9818,-94.9186,4.0,6.502015072,162.178367,7.89,'11111222,11111222,11111222' 
TABS,ioos:station:wmo:42043:1,2010-05-01T21:30:00Z,28.9818,-94.9186,4.0,6.948215598,160.7569082,8.93,'11111222,11111222,11111222' 
TABS,ioos:station:wmo:42043:1,2010-05-01T22:00:00Z,28.9818,-94.9186,4.0,6.734901633,160.0316872,8.24,'11111222,11111222,11111222' 
TABS,ioos:station:wmo:42043:1,2010-05-01T22:30:00Z,28.9818,-94.9186,4.0,6.237772038,157.6700891,7.72,'11111222,11111222,11111222' 
TABS,ioos:station:wmo:42043:1,2010-05-01T23:00:00Z,28.9818,-94.9186,4.0,5.389471217,160.4894566,6.81,'11111222,11111222,11111222' 
TABS,ioos:station:wmo:42043:1,2010-05-01T23:30:00Z,28.9818,-94.9186,4.0,4.853143311,166.0499003,6.25,'11111222,11111222,11111222' 
TABS,ioos:station:wmo:42043:1,2010-05-02T00:00:00Z,28.9818,-94.9186,4.0,4.866805934,163.6505709,6.25,'11111222,11111222,11111222' 
TABS,ioos:station:wmo:42043:1,2010-05-02T00:30:00Z,28.9818,-94.9186,4.0,4.699489334,160.8713134,5.44,'11111222,11111222,11111222' 
TABS,ioos:station:wmo:42043:1,2010-05-02T01:00:00Z,28.9818,-94.9186,4.0,4.734944561,160.3789913,5.89,'11111222,11111222,11111222' 
TABS,ioos:station:wmo:42043:1,2010-05-02T01:30:00Z,28.9818,-94.9186,4.0,4.74802064,171.0338783,6.42,'11111222,11111222,11111222' 
TABS,ioos:station:wmo:42043:1,2010-05-02T02:00:00Z,28.9818,-94.9186,4.0,4.427922764,152.567172,6.05,'11111222,11111222,11111222' 
TABS,ioos:station:wmo:42043:1,2010-05-02T02:30:00Z,28.9818,-94.9186,4.0,5.140787877,157.2260786,6.5,'11111222,11111222,11111222' 
TABS,ioos:station:wmo:42043:1,2010-05-02T03:00:00Z,28.9818,-94.9186,4.0,3.92173431,160.6412616,5.5,'11111222,11111222,11111222' 
TABS,ioos:station:wmo:42043:1,2010-05-02T03:30:00Z,28.9818,-94.9186,4.0,4.77797028,148.8720023,5.83,'11111222,11111222,11111222' 
TABS,ioos:station:wmo:42043:1,2010-05-02T04:00:00Z,28.9818,-94.9186,4.0,6.198790205,146.1820438,7.88,'11111222,11111222,11111222' 
TABS,ioos:station:wmo:42043:1,2010-05-02T04:30:00Z,28.9818,-94.9186,4.0,5.026778292,153.7920402,7.02,'11111222,11111222,11111222' 
TABS,ioos:station:wmo:42043:1,2010-05-02T05:00:00Z,28.9818,-94.9186,4.0,4.730803314,159.4583884,6.15,'11111222,11111222,11111222' 
TABS,ioos:station:wmo:42043:1,2010-05-02T05:30:00Z,28.9818,-94.9186,4.0,2.550960603,178.4277837,3.39,'11111222,11111222,11111222' 
TABS,ioos:station:wmo:42043:1,2010-05-02T06:00:00Z,28.9818,-94.9186,4.0,2.345463707,176.0886478,3.42,'11111222,11111222,11111222' 
TABS,ioos:station:wmo:42043:1,2010-05-02T06:30:00Z,28.9818,-94.9186,4.0,2.51813423,196.8519712,3.17,'11111222,11111222,11111222' 
TABS,ioos:station:wmo:42043:1,2010-05-02T07:00:00Z,28.9818,-94.9186,4.0,4.234583805,192.1327394,5.64,'11111222,11111222,11111222' 
TABS,ioos:station:wmo:42043:1,2010-05-02T07:30:00Z,28.9818,-94.9186,4.0,2.786054558,197.9798823,3.79,'11111222,11111222,11111222' 
TABS,ioos:station:wmo:42043:1,2010-05-02T08:00:00Z,28.9818,-94.9186,4.0,2.115325034,243.3138787,2.82,'11111222,11111222,11111222' 
TABS,ioos:station:wmo:42043:1,2010-05-02T08:30:00Z,28.9818,-94.9186,4.0,2.061965082,257.1095495,3.18,'11111222,11111222,11111222' 
TABS,ioos:station:wmo:42043:1,2010-05-02T09:00:00Z,28.9818,-94.9186,4.0,2.680074626,270.4275715,3.62,'11111222,11111222,11111222' 
TABS,ioos:station:wmo:42043:1,2010-05-02T09:30:00Z,28.9818,-94.9186,4.0,2.430905181,275.4291462,3.64,'11111222,11111222,11111222' 
TABS,ioos:station:wmo:42043:1,2010-05-02T10:00:00Z,28.9818,-94.9186,4.0,1.531012737,289.8551679,2.34,'11111222,11111222,11111222' 
TABS,ioos:station:wmo:42043:1,2010-05-02T10:30:00Z,28.9818,-94.9186,4.0,2.074608397,326.0034099,3.06,'11111222,11111222,11111222' 
TABS,ioos:station:wmo:42043:1,2010-05-02T11:00:00Z,28.9818,-94.9186,4.0,2.69081772,337.7239438,4.05,'11111222,11111222,11111222' 
TABS,ioos:station:wmo:42043:1,2010-05-02T11:30:00Z,28.9818,-94.9186,4.0,2.782966044,331.685156,3.98,'11111222,11111222,11111222' 
TABS,ioos:station:wmo:42043:1,2010-05-02T12:00:00Z,28.9818,-94.9186,4.0,3.92903296,329.0611144,5.38,'11111222,11111222,11111222' 
TABS,ioos:station:wmo:42043:1,2010-05-02T12:30:00Z,28.9818,-94.9186,4.0,3.820379562,346.8365878,5.31,'11111222,11111222,11111222' 
TABS,ioos:station:wmo:42043:1,2010-05-02T13:00:00Z,28.9818,-94.9186,4.0,3.741082731,1.378295711,5.5,'11111222,11111222,11111222' 
TABS,ioos:station:wmo:42043:1,2010-05-02T13:30:00Z,28.9818,-94.9186,4.0,5.55793127,348.6898835,7.48,'11111222,11111222,11111222' 
TABS,ioos:station:wmo:42043:1,2010-05-02T14:00:00Z,28.9818,-94.9186,4.0,5.597213592,338.844738,7.99,'11111222,11111222,11111222' 
TABS,ioos:station:wmo:42043:1,2010-05-02T14:30:00Z,28.9818,-94.9186,4.0,6.994833808,334.0575547,9.58,'11111222,11111222,11111222' 
TABS,ioos:station:wmo:42043:1,2010-05-02T15:00:00Z,28.9818,-94.9186,4.0,6.669347794,343.3581844,8.12,'11111222,11111222,11111222' 
TABS,ioos:station:wmo:42043:1,2010-05-02T15:30:00Z,28.9818,-94.9186,4.0,6.539480102,345.1135575,8.27,'11111222,11111222,11111222' 
TABS,ioos:station:wmo:42043:1,2010-05-02T16:00:00Z,28.9818,-94.9186,4.0,5.891425973,341.9031795,7.94,'11111222,11111222,11111222' 
TABS,ioos:station:wmo:42043:1,2010-05-02T16:30:00Z,28.9818,-94.9186,4.0,7.168186661,348.3293411,9.09,'11111222,11111222,11111222' 
TABS,ioos:station:wmo:42043:1,2010-05-02T17:00:00Z,28.9818,-94.9186,4.0,5.356276692,348.0395398,6.96,'11111222,11111222,11111222' 
TABS,ioos:station:wmo:42043:1,2010-05-02T17:30:00Z,28.9818,-94.9186,4.0,4.566399019,341.882308,5.96,'11111222,11111222,11111222' 
TABS,ioos:station:wmo:42043:1,2010-05-02T18:00:00Z,28.9818,-94.9186,4.0,3.724003222,344.5827786,5.43,'11111222,11111222,11111222' 
TABS,ioos:station:wmo:42043:1,2010-05-02T18:30:00Z,28.9818,-94.9186,4.0,2.581937257,339.5996279,3.5,'11111222,11111222,11111222' 
TABS,ioos:station:wmo:42043:1,2010-05-02T19:00:00Z,28.9818,-94.9186,4.0,2.503537497,339.1759325,3.5,'11111222,11111222,11111222' 
TABS,ioos:station:wmo:42043:1,2010-05-02T19:30:00Z,28.9818,-94.9186,4.0,2.052437575,340.946927,2.91,'11111222,11111222,11111222' 
TABS,ioos:station:wmo:42043:1,2010-05-02T20:00:00Z,28.9818,-94.9186,4.0,2.643217736,332.7562036,4.18,'11111222,11111222,11111222' 
TABS,ioos:station:wmo:42043:1,2010-05-02T20:30:00Z,28.9818,-94.9186,4.0,1.202081528,70.05724113,1.92,'11111222,11111222,11111222' 
TABS,ioos:station:wmo:42043:1,2010-05-02T21:00:00Z,28.9818,-94.9186,4.0,1.917550521,121.7840225,4.23,'11111222,11111222,11111222' 
TABS,ioos:station:wmo:42043:1,2010-05-02T21:30:00Z,28.9818,-94.9186,4.0,3.69112449,135.2198382,4.55,'11111222,11111222,11111222' 
TABS,ioos:station:wmo:42043:1,2010-05-02T22:00:00Z,28.9818,-94.9186,4.0,3.424280946,130.8557016,4.12,'11111222,11111222,11111222' 
TABS,ioos:station:wmo:42043:1,2010-05-02T22:30:00Z,28.9818,-94.9186,4.0,3.621077188,136.119229,4.59,'11111222,11111222,11111222' 
TABS,ioos:station:wmo:42043:1,2010-05-02T23:00:00Z,28.9818,-94.9186,4.0,2.889186737,138.0867977,3.89,'11111222,11111222,11111222' 
TABS,ioos:station:wmo:42043:1,2010-05-02T23:30:00Z,28.9818,-94.9186,4.0,2.87516956,141.4961023,3.69,'11111222,11111222,11111222' 
TABS,ioos:station:wmo:42043:1,2010-05-03T00:00:00Z,28.9818,-94.9186,4.0,2.88189174,151.3898177,3.64,'11111222,11111222,11111222' 
TABS,ioos:station:wmo:42043:1,2010-05-03T00:30:00Z,28.9818,-94.9186,4.0,2.918783993,161.6273802,3.69,'11111222,11111222,11111222' 
TABS,ioos:station:wmo:42043:1,2010-05-03T01:00:00Z,28.9818,-94.9186,4.0,2.789874549,170.3015714,3.59,'11111222,11111222,11111222' 
TABS,ioos:station:wmo:42043:1,2010-05-03T01:30:00Z,28.9818,-94.9186,4.0,2.238861318,187.4426343,3.17,'11111222,11111222,11111222' 
TABS,ioos:station:wmo:42043:1,2010-05-03T02:00:00Z,28.9818,-94.9186,4.0,2.490983741,218.4803187,3.06,'11111222,11111222,11111222' 
TABS,ioos:station:wmo:42043:1,2010-05-03T02:30:00Z,28.9818,-94.9186,4.0,3.337139494,250.2076316,4.23,'11111222,11111222,11111222' 
TABS,ioos:station:wmo:42043:1,2010-05-03T03:00:00Z,28.9818,-94.9186,4.0,4.06354525,245.5794407,4.95,'11111222,11111222,11111222' 
TABS,ioos:station:wmo:42043:1,2010-05-03T03:30:00Z,28.9818,-94.9186,4.0,4.23702726,240.2887337,5.17,'11111222,11111222,11111222' 
TABS,ioos:station:wmo:42043:1,2010-05-03T04:00:00Z,28.9818,-94.9186,4.0,3.396498197,250.9249461,4.37,'11111222,11111222,11111222' 
TABS,ioos:station:wmo:42043:1,2010-05-03T04:30:00Z,28.9818,-94.9186,4.0,2.96718722,250.0994274,3.92,'11111222,11111222,11111222' 
TABS,ioos:station:wmo:42043:1,2010-05-03T05:00:00Z,28.9818,-94.9186,4.0,2.822853167,260.0038014,3.91,'11111222,11111222,11111222' 
TABS,ioos:station:wmo:42043:1,2010-05-03T05:30:00Z,28.9818,-94.9186,4.0,2.586832039,291.3077973,3.77,'11111222,11111222,11111222' 
TABS,ioos:station:wmo:42043:1,2010-05-03T06:00:00Z,28.9818,-94.9186,4.0,2.701851217,267.8789086,3.47,'11111222,11111222,11111222' 
TABS,ioos:station:wmo:42043:1,2010-05-03T06:30:00Z,28.9818,-94.9186,4.0,1.683092392,290.1575638,2.5,'11111222,11111222,11111222' 
TABS,ioos:station:wmo:42043:1,2010-05-03T07:00:00Z,28.9818,-94.9186,4.0,1.887326151,347.1417294,3.33,'11111222,11111222,11111222' 
TABS,ioos:station:wmo:42043:1,2010-05-03T07:30:00Z,28.9818,-94.9186,4.0,0.583095189,264.0938727,1.5,'11111222,11111222,11111222' 
TABS,ioos:station:wmo:42043:1,2010-05-03T08:00:00Z,28.9818,-94.9186,4.0,0.821522976,31.56152758,1.17,'11111222,11111222,11111222' 
TABS,ioos:station:wmo:42043:1,2010-05-03T08:30:00Z,28.9818,-94.9186,4.0,1.266491216,15.57229672,1.87,'11111222,11111222,11111222' 
TABS,ioos:station:wmo:42043:1,2010-05-03T09:00:00Z,28.9818,-94.9186,4.0,1.802470527,30.69089891,2.39,'11111222,11111222,11111222' 
TABS,ioos:station:wmo:42043:1,2010-05-03T09:30:00Z,28.9818,-94.9186,4.0,2.577518186,21.38836235,3.33,'11111222,11111222,11111222' 
TABS,ioos:station:wmo:42043:1,2010-05-03T10:00:00Z,28.9818,-94.9186,4.0,2.72919402,55.90200624,3.36,'11111222,11111222,11111222' 
TABS,ioos:station:wmo:42043:1,2010-05-03T10:30:00Z,28.9818,-94.9186,4.0,2.992056149,70.47461292,3.92,'11111222,11111222,11111222' 
TABS,ioos:station:wmo:42043:1,2010-05-03T11:00:00Z,28.9818,-94.9186,4.0,5.080088582,86.38807648,6.16,'11111222,11111222,11111222' 
TABS,ioos:station:wmo:42043:1,2010-05-03T11:30:00Z,28.9818,-94.9186,4.0,5.215074304,92.52814602,6.4,'11111222,11111222,11111222' 
TABS,ioos:station:wmo:42043:1,2010-05-03T12:00:00Z,28.9818,-94.9186,4.0,5.550792736,94.96120806,6.45,'11111222,11111222,11111222' 
TABS,ioos:station:wmo:42043:1,2010-05-03T12:30:00Z,28.9818,-94.9186,4.0,4.926672305,96.99559686,6.02,'11111222,11111222,11111222' 
TABS,ioos:station:wmo:42043:1,2010-05-03T13:00:00Z,28.9818,-94.9186,4.0,5.430653736,93.58990926,6.67,'11111222,11111222,11111222' 
TABS,ioos:station:wmo:42043:1,2010-05-03T13:30:00Z,28.9818,-94.9186,4.0,6.274432245,100.4685947,7.41,'11111222,11111222,11111222' 
TABS,ioos:station:wmo:42043:1,2010-05-03T14:00:00Z,28.9818,-94.9186,4.0,6.636000301,96.75059463,7.87,'11111222,11111222,11111222' 
TABS,ioos:station:wmo:42043:1,2010-05-03T14:30:00Z,28.9818,-94.9186,4.0,6.803072835,95.6523391,8.3,'11111222,11111222,11111222' 
TABS,ioos:station:wmo:42043:1,2010-05-03T15:00:00Z,28.9818,-94.9186,4.0,7.218864177,97.32231208,8.46,'11111222,11111222,11111222' 
TABS,ioos:station:wmo:42043:1,2010-05-03T15:30:00Z,28.9818,-94.9186,4.0,6.810168867,100.3202934,8.01,'11111222,11111222,11111222' 
TABS,ioos:station:wmo:42043:1,2010-05-03T16:00:00Z,28.9818,-94.9186,4.0,5.62328196,100.4510566,6.73,'11111222,11111222,11111222' 
TABS,ioos:station:wmo:42043:1,2010-05-03T16:30:00Z,28.9818,-94.9186,4.0,5.41939111,97.74176106,6.73,'11111222,11111222,11111222' 
TABS,ioos:station:wmo:42043:1,2010-05-03T17:00:00Z,28.9818,-94.9186,4.0,4.854987127,100.0835774,5.87,'11111222,11111222,11111222' 
TABS,ioos:station:wmo:42043:1,2010-05-03T17:30:00Z,28.9818,-94.9186,4.0,4.16108159,98.9873433,5.08,'11111222,11111222,11111222' 
TABS,ioos:station:wmo:42043:1,2010-05-03T18:00:00Z,28.9818,-94.9186,4.0,3.592339071,96.39343734,4.63,'11111222,11111222,11111222' 
TABS,ioos:station:wmo:42043:1,2010-05-03T18:30:00Z,28.9818,-94.9186,4.0,2.764217792,95.8141245,3.48,'11111222,11111222,11111222' 
TABS,ioos:station:wmo:42043:1,2010-05-03T19:00:00Z,28.9818,-94.9186,4.0,2.201930971,98.09370552,2.95,'11111222,11111222,11111222' 
TABS,ioos:station:wmo:42043:1,2010-05-03T19:30:00Z,28.9818,-94.9186,4.0,1.701793172,83.25042008,2.44,'11111222,11111222,11111222' 
TABS,ioos:station:wmo:42043:1,2010-05-03T20:00:00Z,28.9818,-94.9186,4.0,0.976217189,83.52977423,1.62,'11111222,11111222,11111222' 
TABS,ioos:station:wmo:42043:1,2010-05-03T20:30:00Z,28.9818,-94.9186,4.0,1.00019998,91.14618108,1.48,'11111222,11111222,11111222' 
TABS,ioos:station:wmo:42043:1,2010-05-03T21:00:00Z,28.9818,-94.9186,4.0,1.360147051,126.0277101,2.22,'11111222,11111222,11111222' 
TABS,ioos:station:wmo:42043:1,2010-05-03T21:30:00Z,28.9818,-94.9186,4.0,2.28035085,127.875316,2.96,'11111222,11111222,11111222' 
TABS,ioos:station:wmo:42043:1,2010-05-03T22:00:00Z,28.9818,-94.9186,4.0,1.541557654,135.5259491,2.54,'11111222,11111222,11111222' 
TABS,ioos:station:wmo:42043:1,2010-05-03T22:30:00Z,28.9818,-94.9186,4.0,1.502431363,128.2432339,2.43,'11111222,11111222,11111222' 
TABS,ioos:station:wmo:42043:1,2010-05-03T23:00:00Z,28.9818,-94.9186,4.0,1.009603883,163.8989457,1.46,'11111222,11111222,11111222' 
TABS,ioos:station:wmo:42043:1,2010-05-03T23:30:00Z,28.9818,-94.9186,4.0,2.498979792,214.0717406,3.23,'11111222,11111222,11111222' 
TABS,ioos:station:wmo:42043:1,2010-05-04T00:00:00Z,28.9818,-94.9186,4.0,3.157530681,222.1761515,3.76,'11111222,11111222,11111222' 
TABS,ioos:station:wmo:42043:1,2010-05-04T00:30:00Z,28.9818,-94.9186,4.0,2.808558349,206.200264,3.61,'11111222,11111222,11111222' 
TABS,ioos:station:wmo:42043:1,2010-05-04T01:00:00Z,28.9818,-94.9186,4.0,3.002215848,217.5570786,3.69,'11111222,11111222,11111222' 
TABS,ioos:station:wmo:42043:1,2010-05-04T01:30:00Z,28.9818,-94.9186,4.0,3.281005943,224.7531428,4.15,'11111222,11111222,11111222' 
TABS,ioos:station:wmo:42043:1,2010-05-04T02:00:00Z,28.9818,-94.9186,4.0,3.760904147,236.0564924,4.77,'11111222,11111222,11111222' 
TABS,ioos:station:wmo:42043:1,2010-05-04T02:30:00Z,28.9818,-94.9186,4.0,4.147010972,237.3063568,5.03,'11111222,11111222,11111222' 
TABS,ioos:station:wmo:42043:1,2010-05-04T03:00:00Z,28.9818,-94.9186,4.0,3.498714049,228.2441607,4.27,'11111222,11111222,11111222' 
TABS,ioos:station:wmo:42043:1,2010-05-04T03:30:00Z,28.9818,-94.9186,4.0,3.200281238,211.4551635,4.37,'11111222,11111222,11111222' 
TABS,ioos:station:wmo:42043:1,2010-05-04T04:00:00Z,28.9818,-94.9186,4.0,3.340134728,233.6448063,4.2,'11111222,11111222,11111222' 
TABS,ioos:station:wmo:42043:1,2010-05-04T04:30:00Z,28.9818,-94.9186,4.0,3.445707475,223.0008637,4.28,'11111222,11111222,11111222' 
TABS,ioos:station:wmo:42043:1,2010-05-04T05:00:00Z,28.9818,-94.9186,4.0,3.522059057,228.7988678,4.64,'11111222,11111222,11111222' 
TABS,ioos:station:wmo:42043:1,2010-05-04T05:30:00Z,28.9818,-94.9186,4.0,6.914014753,309.9540219,11.15,'11111222,11111222,11111222' 
TABS,ioos:station:wmo:42043:1,2010-05-04T06:00:00Z,28.9818,-94.9186,4.0,8.155599304,347.7529531,11.37,'11111222,11111222,11111222' 
TABS,ioos:station:wmo:42043:1,2010-05-04T06:30:00Z,28.9818,-94.9186,4.0,8.702442186,12.0715265,11.09,'11111222,11111222,11111222' 
TABS,ioos:station:wmo:42043:1,2010-05-04T07:00:00Z,28.9818,-94.9186,4.0,9.184971421,9.462089622,11.52,'11111222,11111222,11111222' 
TABS,ioos:station:wmo:42043:1,2010-05-04T07:30:00Z,28.9818,-94.9186,4.0,8.513636121,16.09305527,11.67,'11111222,11111222,11111222' 
TABS,ioos:station:wmo:42043:1,2010-05-04T08:00:00Z,28.9818,-94.9186,4.0,7.902050367,24.68371779,10.23,'11111222,11111222,11111222' 
TABS,ioos:station:wmo:42043:1,2010-05-04T08:30:00Z,28.9818,-94.9186,4.0,6.487788529,34.44910322,8.24,'11111222,11111222,11111222' 
TABS,ioos:station:wmo:42043:1,2010-05-04T09:00:00Z,28.9818,-94.9186,4.0,6.031003233,35.82452269,7.63,'11111222,11111222,11111222' 
TABS,ioos:station:wmo:42043:1,2010-05-04T09:30:00Z,28.9818,-94.9186,4.0,5.229168194,32.50452024,6.63,'11111222,11111222,11111222' 
TABS,ioos:station:wmo:42043:1,2010-05-04T10:00:00Z,28.9818,-94.9186,4.0,6.020298996,39.87837978,7.82,'11111222,11111222,11111222' 
TABS,ioos:station:wmo:42043:1,2010-05-04T10:30:00Z,28.9818,-94.9186,4.0,5.205573936,35.46061477,6.75,'11111222,11111222,11111222' 
TABS,ioos:station:wmo:42043:1,2010-05-04T11:00:00Z,28.9818,-94.9186,4.0,4.724785709,49.6351369,6.05,'11111222,11111222,11111222' 
TABS,ioos:station:wmo:42043:1,2010-05-04T11:30:00Z,28.9818,-94.9186,4.0,4.269191961,40.63010288,5.56,'11111222,11111222,11111222' 
TABS,ioos:station:wmo:42043:1,2010-05-04T12:00:00Z,28.9818,-94.9186,4.0,3.567211796,42.50027056,4.68,'11111222,11111222,11111222' 
TABS,ioos:station:wmo:42043:1,2010-05-04T12:30:00Z,28.9818,-94.9186,4.0,2.19317122,43.15207837,3.28,'11111222,11111222,11111222' 
TABS,ioos:station:wmo:42043:1,2010-05-04T13:00:00Z,28.9818,-94.9186,4.0,2.226432123,29.90419877,3.11,'11111222,11111222,11111222' 
TABS,ioos:station:wmo:42043:1,2010-05-04T13:30:00Z,28.9818,-94.9186,4.0,2.308246087,8.972395174,3.09,'11111222,11111222,11111222' 
TABS,ioos:station:wmo:42043:1,2010-05-04T14:00:00Z,28.9818,-94.9186,4.0,1.452790418,346.059231,2.49,'11111222,11111222,11111222' 
TABS,ioos:station:wmo:42043:1,2010-05-04T14:30:00Z,28.9818,-94.9186,4.0,1.203037822,333.8607826,1.8,'11111222,11111222,11111222' 
TABS,ioos:station:wmo:42043:1,2010-05-04T15:00:00Z,28.9818,-94.9186,4.0,1.348332303,290.8544093,2.37,'11111222,11111222,11111222' 
TABS,ioos:station:wmo:42043:1,2010-05-04T15:30:00Z,28.9818,-94.9186,4.0,0.92282176,299.8988319,2.17,'11111222,11111222,11111222' 
TABS,ioos:station:wmo:42043:1,2010-05-04T16:00:00Z,28.9818,-94.9186,4.0,2.283265206,302.297902,3.09,'11111222,11111222,11111222' 
TABS,ioos:station:wmo:42043:1,2010-05-04T16:30:00Z,28.9818,-94.9186,4.0,2.008108563,288.8860432,2.99,'11111222,11111222,11111222' 
TABS,ioos:station:wmo:42043:1,2010-05-04T17:00:00Z,28.9818,-94.9186,4.0,1.688608895,278.513968,2.55,'11111222,11111222,11111222' 
TABS,ioos:station:wmo:42043:1,2010-05-04T17:30:00Z,28.9818,-94.9186,4.0,2.153531983,251.3126922,2.82,'11111222,11111222,11111222' 
TABS,ioos:station:wmo:42043:1,2010-05-04T18:00:00Z,28.9818,-94.9186,4.0,1.897472002,212.517645,2.47,'11111222,11111222,11111222' 
TABS,ioos:station:wmo:42043:1,2010-05-04T18:30:00Z,28.9818,-94.9186,4.0,2.057668584,207.8105609,2.5,'11111222,11111222,11111222' 